"Platform","Alpena ReCON Buoy"
"NDBC ID","45162"
"Latitude (deg)",44.986
"Longitude (deg)",-83.269
"Water Depth (m)",20
"Sensor Device","Cisco AP1242AG WiFi Radio"
"Sensor Type","Received Signal Level (RSL) at base station"
"Sensor Units","decibels per milliwatt"
"Measurement","A sample"
"Time means","Time at sample (UTC time zone)"

"Note:","This data was collected for research purposes."
"Note:","Minimal quality checking has been performed so data may contain known or unknown errors."
"Note:","Data provided by NOAA. Please credit NOAA."
"Note:","For more info see www.glerl.noaa.gov/res/recon"

"Time (UTC)","RSL"
"YYYY/MM/DD HH:MM","dBm"
2015/07/06 18:42, -77
2015/07/06 19:02, -71
2015/07/06 19:22, -70
2015/07/06 19:42, -75
2015/07/06 20:02, -70
2015/07/06 20:22, -71
2015/07/06 20:42, -73
2015/07/06 21:02, -72
2015/07/06 21:22, -71
2015/07/06 21:42, -69
2015/07/06 22:02, -73
2015/07/06 22:22, -67
2015/07/06 22:42, -69
2015/07/06 23:02, -69
2015/07/06 23:22, -70
2015/07/07 00:02, -70
2015/07/07 00:22, -71
2015/07/07 00:42, -71
2015/07/07 01:02, -74
2015/07/07 01:22, -70
2015/07/07 01:42, -71
2015/07/07 02:02, -68
2015/07/07 02:22, -70
2015/07/07 02:42, -69
2015/07/07 03:02, -71
2015/07/07 03:22, -69
2015/07/07 03:42, -69
2015/07/07 04:02, -69
2015/07/07 04:22, -71
2015/07/07 05:02, -72
2015/07/07 05:22, -74
2015/07/07 06:02, -73
2015/07/07 06:22, -75
2015/07/07 06:42, -70
2015/07/07 07:02, -73
2015/07/07 07:22, -73
2015/07/07 07:42, -73
2015/07/07 09:02, -75
2015/07/07 09:22, -66
2015/07/07 09:42, -67
2015/07/07 10:02, -68
2015/07/07 10:42, -66
2015/07/07 11:03, -66
2015/07/07 11:22, -66
2015/07/07 11:42, -67
2015/07/07 12:03, -67
2015/07/07 12:22, -70
2015/07/07 12:42, -67
2015/07/07 13:03, -74
2015/07/07 13:22, -69
2015/07/07 13:42, -67
2015/07/07 14:03, -67
2015/07/07 14:22, -74
2015/07/07 14:42, -73
2015/07/07 15:03, -73
2015/07/07 15:22, -73
2015/07/07 15:42, -66
2015/07/07 16:03, -72
2015/07/07 16:22, -73
2015/07/07 16:42, -72
2015/07/07 17:03, -75
2015/07/07 17:22, -70
2015/07/07 17:42, -75
2015/07/07 18:03, -69
2015/07/07 18:22, -75
2015/07/07 18:42, -73
2015/07/07 19:03, -68
2015/07/07 19:22, -73
2015/07/07 19:42, -66
2015/07/07 20:03, -67
2015/07/07 20:22, -75
2015/07/07 21:03, -66
2015/07/07 21:22, -63
2015/07/07 21:42, -67
2015/07/07 22:03, -64
2015/07/07 22:22, -64
2015/07/07 22:42, -66
2015/07/07 23:03, -68
2015/07/07 23:22, -64
2015/07/07 23:42, -63
2015/07/08 00:03, -61
2015/07/08 00:22, -67
2015/07/08 00:42, -63
2015/07/08 01:03, -65
2015/07/08 01:22, -63
2015/07/08 01:42, -65
2015/07/08 02:03, -64
2015/07/08 02:22, -66
2015/07/08 02:42, -64
2015/07/08 03:03, -64
2015/07/08 03:22, -65
2015/07/08 03:42, -65
2015/07/08 04:03, -65
2015/07/08 04:22, -65
2015/07/08 04:42, -65
2015/07/08 05:03, -65
2015/07/08 05:22, -62
2015/07/08 05:42, -65
2015/07/08 06:03, -64
2015/07/08 06:22, -63
2015/07/08 06:42, -64
2015/07/08 07:03, -64
2015/07/08 07:22, -62
2015/07/08 07:42, -65
2015/07/08 08:03, -64
2015/07/08 08:22, -64
2015/07/08 08:42, -63
2015/07/08 09:03, -64
2015/07/08 09:23, -64
2015/07/08 09:42, -64
2015/07/08 10:04, -65
2015/07/08 10:22, -65
2015/07/08 10:42, -64
2015/07/08 11:03, -66
2015/07/08 11:22, -66
2015/07/08 11:42, -67
2015/07/08 12:03, -66
2015/07/08 12:22, -66
2015/07/08 12:42, -67
2015/07/08 13:03, -68
2015/07/08 13:22, -69
2015/07/08 13:42, -70
2015/07/08 14:03, -73
2015/07/08 14:22, -74
2015/07/08 14:42, -71
2015/07/08 15:03, -72
2015/07/08 15:22, -72
2015/07/08 15:42, -74
2015/07/08 16:03, -73
2015/07/08 16:22, -73
2015/07/08 16:42, -72
2015/07/08 17:04, -72
2015/07/08 17:22, -72
2015/07/08 17:42, -70
2015/07/08 18:03, -71
2015/07/08 18:22, -70
2015/07/08 18:42, -71
2015/07/08 19:04, -70
2015/07/08 19:22, -72
2015/07/08 19:42, -67
2015/07/08 20:03, -61
2015/07/08 20:22, -61
2015/07/08 20:42, -64
2015/07/08 21:03, -68
2015/07/08 21:22, -71
2015/07/08 21:42, -73
2015/07/08 22:03, -67
2015/07/08 22:22, -68
2015/07/08 22:42, -68
2015/07/08 23:03, -62
2015/07/08 23:22, -61
2015/07/08 23:42, -64
2015/07/09 00:04, -61
2015/07/09 00:22, -62
2015/07/09 00:42, -59
2015/07/09 01:03, -57
2015/07/09 01:22, -59
2015/07/09 01:42, -66
2015/07/09 02:03, -66
2015/07/09 02:22, -69
2015/07/09 02:42, -68
2015/07/09 03:03, -69
2015/07/09 03:22, -70
2015/07/09 03:42, -72
2015/07/09 04:03, -72
2015/07/09 04:22, -69
2015/07/09 04:42, -72
2015/07/09 05:03, -72
2015/07/09 05:22, -70
2015/07/09 05:42, -73
2015/07/09 06:03, -72
2015/07/09 06:22, -73
2015/07/09 06:42, -73
2015/07/09 07:04, -72
2015/07/09 07:22, -74
2015/07/09 07:42, -73
2015/07/09 08:04, -73
2015/07/09 08:23, -75
2015/07/09 08:42, -74
2015/07/09 09:03, -74
2015/07/09 09:22, -75
2015/07/09 09:42, -74
2015/07/09 10:03, -73
2015/07/09 10:22, -74
2015/07/09 10:42, -73
2015/07/09 11:03, -74
2015/07/09 11:22, -74
2015/07/09 11:42, -73
2015/07/09 12:03, -74
2015/07/09 12:22, -73
2015/07/09 12:42, -73
2015/07/09 13:03, -72
2015/07/09 13:22, -74
2015/07/09 13:42, -72
2015/07/09 14:03, -74
2015/07/09 14:22, -73
2015/07/09 14:42, -73
2015/07/09 15:03, -73
2015/07/09 15:42, -71
2015/07/09 16:03, -72
2015/07/09 16:22, -73
2015/07/09 16:42, -72
2015/07/09 17:03, -70
2015/07/09 17:22, -68
2015/07/09 17:42, -70
2015/07/09 18:04, -70
2015/07/09 18:22, -71
2015/07/09 18:42, -69
2015/07/09 19:03, -69
2015/07/09 19:22, -72
2015/07/09 19:42, -69
2015/07/09 20:03, -66
2015/07/09 20:22, -68
2015/07/09 20:42, -69
2015/07/09 21:03, -69
2015/07/09 21:22, -67
2015/07/09 21:42, -66
2015/07/09 22:03, -68
2015/07/09 22:22, -71
2015/07/09 22:42, -70
2015/07/09 23:03, -73
2015/07/09 23:22, -66
2015/07/09 23:42, -68
2015/07/10 00:03, -63
2015/07/10 00:22, -61
2015/07/10 00:42, -67
2015/07/10 01:03, -68
2015/07/10 01:22, -69
2015/07/10 01:43, -69
2015/07/10 02:03, -68
2015/07/10 02:22, -67
2015/07/10 02:42, -68
2015/07/10 03:03, -69
2015/07/10 03:22, -67
2015/07/10 03:42, -68
2015/07/10 04:03, -68
2015/07/10 04:22, -68
2015/07/10 04:42, -68
2015/07/10 05:03, -69
2015/07/10 05:22, -70
2015/07/10 05:42, -69
2015/07/10 06:03, -68
2015/07/10 06:22, -71
2015/07/10 06:42, -71
2015/07/10 07:23, -65
2015/07/10 07:42, -64
2015/07/10 08:03, -67
2015/07/10 08:22, -69
2015/07/10 08:42, -70
2015/07/10 09:04, -65
2015/07/10 09:22, -68
2015/07/10 09:42, -72
2015/07/10 10:03, -73
2015/07/10 10:22, -75
2015/07/10 10:42, -73
2015/07/10 11:03, -75
2015/07/10 11:43, -74
2015/07/10 12:04, -72
2015/07/10 12:23, -74
2015/07/10 12:43, -73
2015/07/10 13:03, -72
2015/07/10 13:22, -73
2015/07/10 13:42, -70
2015/07/10 14:03, -68
2015/07/10 14:22, -68
2015/07/10 14:42, -70
2015/07/10 15:03, -70
2015/07/10 15:22, -72
2015/07/10 15:42, -68
2015/07/10 16:03, -71
2015/07/10 16:23, -67
2015/07/10 16:42, -63
2015/07/10 17:03, -63
2015/07/10 17:22, -64
2015/07/10 17:42, -66
2015/07/10 18:03, -68
2015/07/10 18:22, -69
2015/07/10 18:42, -63
2015/07/10 19:04, -70
2015/07/10 19:23, -71
2015/07/10 19:42, -72
2015/07/10 20:03, -77
2015/07/10 20:22, -69
2015/07/10 20:42, -70
2015/07/10 21:03, -66
2015/07/10 21:23, -64
2015/07/10 21:42, -69
2015/07/10 22:03, -66
2015/07/10 22:22, -62
2015/07/10 22:42, -66
2015/07/10 23:03, -66
2015/07/10 23:22, -68
2015/07/10 23:42, -71
2015/07/11 00:03, -70
2015/07/11 00:22, -70
2015/07/11 00:42, -72
2015/07/11 01:03, -70
2015/07/11 01:22, -70
2015/07/11 01:42, -68
2015/07/11 02:03, -68
2015/07/11 02:22, -66
2015/07/11 02:42, -70
2015/07/11 03:03, -69
2015/07/11 03:23, -70
2015/07/11 03:42, -71
2015/07/11 04:03, -72
2015/07/11 04:22, -73
2015/07/11 04:42, -73
2015/07/11 05:03, -74
2015/07/11 05:22, -75
2015/07/11 05:42, -74
2015/07/11 06:03, -73
2015/07/11 06:22, -70
2015/07/11 06:42, -75
2015/07/11 07:03, -71
2015/07/11 07:22, -71
2015/07/11 07:42, -70
2015/07/11 08:03, -69
2015/07/11 08:22, -69
2015/07/11 08:42, -64
2015/07/11 09:03, -67
2015/07/11 09:22, -68
2015/07/11 09:42, -65
2015/07/11 10:03, -65
2015/07/11 10:22, -66
2015/07/11 10:42, -68
2015/07/11 11:03, -70
2015/07/11 11:23, -67
2015/07/11 11:43, -68
2015/07/11 12:03, -67
2015/07/11 12:22, -67
2015/07/11 12:42, -68
2015/07/11 13:03, -68
2015/07/11 13:22, -67
2015/07/11 13:42, -68
2015/07/11 14:03, -69
2015/07/11 14:22, -70
2015/07/11 14:42, -69
2015/07/11 15:03, -70
2015/07/11 15:22, -69
2015/07/11 15:42, -69
2015/07/11 16:03, -68
2015/07/11 16:22, -67
2015/07/11 16:42, -68
2015/07/11 17:03, -70
2015/07/11 17:22, -70
2015/07/11 17:42, -73
2015/07/11 18:03, -66
2015/07/11 18:22, -66
2015/07/11 18:42, -68
2015/07/11 19:03, -71
2015/07/11 19:22, -77
2015/07/11 19:42, -71
2015/07/11 20:03, -67
2015/07/11 20:22, -70
2015/07/11 20:42, -73
2015/07/11 21:23, -70
2015/07/11 21:42, -69
2015/07/11 22:03, -69
2015/07/11 22:22, -65
2015/07/11 22:42, -72
2015/07/11 23:03, -63
2015/07/11 23:23, -66
2015/07/11 23:42, -72
2015/07/12 00:03, -66
2015/07/12 00:22, -69
2015/07/12 00:42, -69
2015/07/12 01:03, -69
2015/07/12 01:23, -67
2015/07/12 01:42, -65
2015/07/12 02:03, -64
2015/07/12 02:23, -69
2015/07/12 02:42, -68
2015/07/12 03:03, -71
2015/07/12 03:22, -71
2015/07/12 03:42, -71
2015/07/12 04:03, -68
2015/07/12 04:22, -69
2015/07/12 04:42, -68
2015/07/12 05:03, -70
2015/07/12 05:22, -71
2015/07/12 05:42, -70
2015/07/12 06:03, -73
2015/07/12 06:22, -72
2015/07/12 06:42, -71
2015/07/12 07:03, -72
2015/07/12 07:22, -71
2015/07/12 07:42, -65
2015/07/12 08:03, -65
2015/07/12 08:22, -67
2015/07/12 08:42, -69
2015/07/12 09:03, -68
2015/07/12 09:22, -67
2015/07/12 09:42, -66
2015/07/12 10:03, -67
2015/07/12 10:22, -66
2015/07/12 10:42, -69
2015/07/12 11:03, -68
2015/07/12 11:22, -71
2015/07/12 11:42, -64
2015/07/12 12:03, -66
2015/07/12 12:22, -66
2015/07/12 12:42, -66
2015/07/12 13:03, -67
2015/07/12 13:22, -70
2015/07/12 13:42, -69
2015/07/12 14:03, -68
2015/07/12 14:22, -68
2015/07/12 14:42, -71
2015/07/12 15:03, -69
2015/07/12 15:23, -67
2015/07/12 15:42, -69
2015/07/12 16:03, -71
2015/07/12 16:22, -70
2015/07/12 16:42, -68
2015/07/12 17:03, -68
2015/07/12 17:22, -69
2015/07/12 17:42, -65
2015/07/12 18:04, -66
2015/07/12 18:22, -67
2015/07/12 18:42, -67
2015/07/12 19:03, -65
2015/07/12 19:22, -69
2015/07/12 19:42, -66
2015/07/12 20:03, -64
2015/07/12 20:23, -66
2015/07/12 20:42, -63
2015/07/12 21:03, -66
2015/07/12 21:22, -68
2015/07/12 21:42, -68
2015/07/12 22:03, -68
2015/07/12 22:22, -69
2015/07/12 22:42, -68
2015/07/12 23:03, -68
2015/07/12 23:22, -72
2015/07/12 23:42, -70
2015/07/13 00:03, -70
2015/07/13 00:22, -69
2015/07/13 00:42, -62
2015/07/13 01:03, -66
2015/07/13 01:22, -63
2015/07/13 01:42, -66
2015/07/13 02:03, -66
2015/07/13 02:23, -65
2015/07/13 02:42, -64
2015/07/13 03:03, -62
2015/07/13 03:22, -65
2015/07/13 03:42, -63
2015/07/13 04:03, -62
2015/07/13 04:22, -66
2015/07/13 04:42, -64
2015/07/13 05:03, -62
2015/07/13 05:22, -62
2015/07/13 05:42, -62
2015/07/13 06:03, -64
2015/07/13 06:22, -64
2015/07/13 06:42, -66
2015/07/13 07:03, -67
2015/07/13 07:22, -68
2015/07/13 07:42, -67
2015/07/13 08:03, -67
2015/07/13 08:22, -69
2015/07/13 08:42, -70
2015/07/13 09:03, -69
2015/07/13 09:22, -68
2015/07/13 09:42, -69
2015/07/13 10:03, -69
2015/07/13 10:22, -70
2015/07/13 10:42, -71
2015/07/13 11:03, -68
2015/07/13 11:22, -68
2015/07/13 11:42, -69
2015/07/13 12:03, -69
2015/07/13 12:22, -70
2015/07/13 12:42, -70
2015/07/13 13:03, -70
2015/07/13 13:22, -71
2015/07/13 13:42, -70
2015/07/13 14:03, -71
2015/07/13 14:22, -73
2015/07/13 14:42, -73
2015/07/13 15:03, -73
2015/07/13 15:22, -73
2015/07/13 15:42, -76
2015/07/13 16:03, -74
2015/07/13 16:22, -71
2015/07/13 16:42, -70
2015/07/13 17:03, -72
2015/07/13 17:22, -72
2015/07/13 17:42, -73
2015/07/13 18:03, -69
2015/07/13 18:22, -72
2015/07/13 18:42, -78
2015/07/13 19:03, -78
2015/07/13 19:22, -73
2015/07/13 19:42, -71
2015/07/13 20:03, -76
2015/07/13 20:22, -71
2015/07/13 20:42, -72
2015/07/13 21:03, -72
2015/07/13 21:22, -71
2015/07/13 21:42, -69
2015/07/13 22:03, -72
2015/07/13 22:22, -72
2015/07/13 22:42, -70
2015/07/13 23:03, -71
2015/07/13 23:22, -70
2015/07/13 23:42, -69
2015/07/14 00:03, -74
2015/07/14 00:22, -69
2015/07/14 00:42, -72
2015/07/14 01:03, -70
2015/07/14 01:23, -68
2015/07/14 01:42, -71
2015/07/14 02:03, -70
2015/07/14 02:22, -69
2015/07/14 02:42, -69
2015/07/14 03:03, -69
2015/07/14 03:22, -72
2015/07/14 03:42, -73
2015/07/14 04:03, -70
2015/07/14 04:22, -71
2015/07/14 04:42, -68
2015/07/14 05:03, -69
2015/07/14 05:22, -69
2015/07/14 05:42, -73
2015/07/14 06:03, -73
2015/07/14 06:22, -74
2015/07/14 06:42, -73
2015/07/14 07:03, -72
2015/07/14 07:22, -74
2015/07/14 07:42, -72
2015/07/14 08:03, -73
2015/07/14 08:22, -74
2015/07/14 08:42, -72
2015/07/14 09:03, -71
2015/07/14 09:22, -75
2015/07/14 09:42, -72
2015/07/14 10:03, -70
2015/07/14 10:22, -70
2015/07/14 10:42, -70
2015/07/14 11:03, -67
2015/07/14 11:22, -71
2015/07/14 11:42, -68
2015/07/14 12:03, -68
2015/07/14 12:22, -70
2015/07/14 12:42, -69
2015/07/14 13:03, -67
2015/07/14 13:22, -67
2015/07/14 13:42, -67
2015/07/14 14:03, -66
2015/07/14 14:22, -67
2015/07/14 14:42, -67
2015/07/14 15:03, -66
2015/07/14 15:22, -66
2015/07/14 15:42, -66
2015/07/14 16:03, -65
2015/07/14 16:22, -66
2015/07/14 16:42, -64
2015/07/14 17:03, -66
2015/07/14 17:22, -66
2015/07/14 17:42, -65
2015/07/14 18:03, -66
2015/07/14 18:22, -66
2015/07/14 19:04, -64
2015/07/14 19:23, -66
2015/07/14 19:47, -67
2015/07/14 20:03, -66
2015/07/14 20:22, -69
2015/07/14 20:43, -66
2015/07/14 21:03, -65
2015/07/14 21:23, -64
2015/07/14 21:43, -68
2015/07/14 22:03, -69
2015/07/14 22:23, -69
2015/07/14 22:43, -66
2015/07/14 23:03, -68
2015/07/14 23:23, -69
2015/07/14 23:43, -67
2015/07/15 00:03, -66
2015/07/15 00:23, -65
2015/07/15 00:43, -64
2015/07/15 01:03, -63
2015/07/15 01:22, -63
2015/07/15 01:43, -62
2015/07/15 02:02, -61
2015/07/15 02:22, -61
2015/07/15 02:43, -62
2015/07/15 03:03, -61
2015/07/15 03:23, -62
2015/07/15 03:43, -61
2015/07/15 04:03, -63
2015/07/15 04:23, -64
2015/07/15 04:43, -66
2015/07/15 05:02, -66
2015/07/15 05:23, -66
2015/07/15 05:43, -67
2015/07/15 06:03, -66
2015/07/15 06:23, -64
2015/07/15 06:42, -66
2015/07/15 07:03, -64
2015/07/15 07:23, -65
2015/07/15 07:44, -65
2015/07/15 08:04, -64
2015/07/15 08:23, -67
2015/07/15 08:44, -65
2015/07/15 09:03, -63
2015/07/15 09:23, -64
2015/07/15 09:43, -64
2015/07/15 10:04, -65
2015/07/15 10:23, -67
2015/07/15 10:43, -71
2015/07/15 11:03, -65
2015/07/15 11:23, -64
2015/07/15 11:43, -65
2015/07/15 12:03, -65
2015/07/15 12:24, -66
2015/07/15 12:43, -67
2015/07/15 13:03, -67
2015/07/15 13:22, -65
2015/07/15 13:43, -64
2015/07/15 14:03, -69
2015/07/15 14:23, -68
2015/07/15 14:43, -65
2015/07/15 15:03, -65
2015/07/15 15:23, -68
2015/07/15 15:44, -71
2015/07/15 16:03, -65
2015/07/15 16:22, -64
2015/07/15 16:42, -68
2015/07/15 17:02, -70
2015/07/15 17:22, -67
2015/07/15 17:42, -71
2015/07/15 18:02, -69
2015/07/15 18:22, -69
2015/07/15 18:42, -71
2015/07/15 19:02, -71
2015/07/15 19:22, -68
2015/07/15 19:42, -68
2015/07/15 20:02, -71
2015/07/15 20:22, -71
2015/07/15 20:42, -71
2015/07/15 21:02, -71
2015/07/15 21:22, -69
2015/07/15 21:42, -70
2015/07/15 22:03, -69
2015/07/15 22:23, -70
2015/07/15 22:42, -71
2015/07/15 23:02, -70
2015/07/15 23:22, -70
2015/07/15 23:42, -71
2015/07/16 00:02, -69
2015/07/16 00:22, -70
2015/07/16 00:42, -70
2015/07/16 01:02, -70
2015/07/16 01:22, -68
2015/07/16 01:42, -69
2015/07/16 02:02, -69
2015/07/16 02:22, -68
2015/07/16 02:42, -70
2015/07/16 03:03, -68
2015/07/16 03:23, -69
2015/07/16 03:43, -70
2015/07/16 04:03, -68
2015/07/16 04:22, -69
2015/07/16 04:42, -72
2015/07/16 05:02, -72
2015/07/16 05:22, -71
2015/07/16 05:42, -72
2015/07/16 06:03, -71
2015/07/16 06:22, -71
2015/07/16 06:43, -70
2015/07/16 07:03, -71
2015/07/16 07:23, -70
2015/07/16 07:43, -70
2015/07/16 08:03, -72
2015/07/16 08:23, -72
2015/07/16 08:43, -71
2015/07/16 09:02, -73
2015/07/16 09:23, -71
2015/07/16 09:43, -69
2015/07/16 10:03, -70
2015/07/16 10:23, -72
2015/07/16 10:42, -72
2015/07/16 11:02, -71
2015/07/16 11:22, -71
2015/07/16 11:42, -71
2015/07/16 12:03, -71
2015/07/16 12:22, -69
2015/07/16 12:42, -70
2015/07/16 13:02, -69
2015/07/16 13:22, -71
2015/07/16 13:42, -70
2015/07/16 14:02, -70
2015/07/16 14:22, -69
2015/07/16 14:42, -70
2015/07/16 15:03, -70
2015/07/16 15:22, -69
2015/07/16 15:42, -71
2015/07/16 16:03, -69
2015/07/16 16:22, -69
2015/07/16 16:42, -70
2015/07/16 17:02, -70
2015/07/16 17:22, -68
2015/07/16 17:43, -70
2015/07/16 18:03, -70
2015/07/16 18:22, -68
2015/07/16 18:42, -69
2015/07/16 19:02, -70
2015/07/16 19:22, -73
2015/07/16 19:42, -70
2015/07/16 20:02, -72
2015/07/16 20:22, -70
2015/07/16 20:42, -71
2015/07/16 21:02, -72
2015/07/16 21:22, -69
2015/07/16 21:42, -69
2015/07/16 22:03, -74
2015/07/16 22:22, -70
2015/07/16 22:42, -70
2015/07/16 23:02, -69
2015/07/16 23:22, -69
2015/07/16 23:42, -69
2015/07/17 00:02, -71
2015/07/17 00:23, -69
2015/07/17 00:43, -69
2015/07/17 01:02, -69
2015/07/17 01:23, -71
2015/07/17 01:43, -69
2015/07/17 02:03, -70
2015/07/17 02:22, -69
2015/07/17 02:43, -69
2015/07/17 03:03, -69
2015/07/17 03:23, -67
2015/07/17 03:42, -65
2015/07/17 04:03, -63
2015/07/17 04:22, -66
2015/07/17 04:42, -65
2015/07/17 05:02, -68
2015/07/17 05:22, -70
2015/07/17 05:42, -70
2015/07/17 06:02, -67
2015/07/17 06:23, -68
2015/07/17 06:43, -67
2015/07/17 07:03, -69
2015/07/17 07:22, -70
2015/07/17 07:43, -66
2015/07/17 08:03, -68
2015/07/17 08:23, -71
2015/07/17 08:43, -73
2015/07/17 09:03, -72
2015/07/17 09:23, -79
2015/07/17 09:42, -73
2015/07/17 10:03, -77
2015/07/17 10:23, -77
2015/07/17 10:43, -79
2015/07/17 11:03, -75
2015/07/17 11:23, -74
2015/07/17 11:43, -77
2015/07/17 12:02, -76
2015/07/17 12:22, -75
2015/07/17 12:42, -77
2015/07/17 13:02, -79
2015/07/17 13:23, -74
2015/07/17 13:43, -75
2015/07/17 14:03, -80
2015/07/17 14:23, -73
2015/07/17 14:43, -72
2015/07/17 15:03, -71
2015/07/17 15:22, -73
2015/07/17 15:43, -72
2015/07/17 16:03, -71
2015/07/17 16:23, -69
2015/07/17 16:43, -70
2015/07/17 17:03, -72
2015/07/17 17:23, -73
2015/07/17 17:43, -75
2015/07/17 18:03, -55
2015/07/17 18:23, -73
2015/07/17 18:43, -77
2015/07/17 19:03, -73
2015/07/17 19:23, -75
2015/07/17 19:43, -72
2015/07/17 20:03, -72
2015/07/17 20:23, -70
2015/07/17 20:43, -67
2015/07/17 21:03, -73
2015/07/17 21:22, -72
2015/07/17 21:43, -71
2015/07/17 22:03, -69
2015/07/17 22:22, -73
2015/07/17 22:42, -65
2015/07/17 23:02, -73
2015/07/17 23:22, -72
2015/07/17 23:42, -69
2015/07/18 00:02, -72
2015/07/18 00:22, -67
2015/07/18 00:43, -71
2015/07/18 01:03, -65
2015/07/18 01:23, -66
2015/07/18 01:42, -66
2015/07/18 02:03, -66
2015/07/18 02:22, -66
2015/07/18 02:43, -72
2015/07/18 03:03, -65
2015/07/18 03:23, -71
2015/07/18 03:42, -66
2015/07/18 04:03, -69
2015/07/18 04:22, -72
2015/07/18 04:42, -71
2015/07/18 05:02, -72
2015/07/18 05:22, -71
2015/07/18 05:42, -72
2015/07/18 06:03, -71
2015/07/18 06:22, -71
2015/07/18 06:42, -73
2015/07/18 07:03, -72
2015/07/18 07:22, -70
2015/07/18 07:43, -72
2015/07/18 08:03, -71
2015/07/18 08:22, -71
2015/07/18 08:42, -71
2015/07/18 09:03, -72
2015/07/18 09:23, -72
2015/07/18 09:43, -71
2015/07/18 10:03, -71
2015/07/18 10:22, -73
2015/07/18 10:42, -71
2015/07/18 11:03, -73
2015/07/18 11:23, -72
2015/07/18 11:42, -71
2015/07/18 12:03, -71
2015/07/18 12:22, -70
2015/07/18 12:42, -73
2015/07/18 13:02, -74
2015/07/18 13:23, -73
2015/07/18 13:42, -73
2015/07/18 14:03, -73
2015/07/18 14:23, -73
2015/07/18 14:43, -74
2015/07/18 15:03, -73
2015/07/18 15:22, -76
2015/07/18 15:42, -80
2015/07/18 16:02, -75
2015/07/18 16:22, -76
2015/07/18 16:43, -77
2015/07/18 17:03, -76
2015/07/18 17:22, -76
2015/07/18 17:42, -71
2015/07/18 18:02, -74
2015/07/18 18:23, -80
2015/07/18 18:43, -74
2015/07/18 19:03, -74
2015/07/18 19:23, -76
2015/07/18 19:43, -72
2015/07/18 20:03, -73
2015/07/18 20:23, -71
2015/07/18 20:42, -72
2015/07/18 21:02, -71
2015/07/18 21:23, -71
2015/07/18 21:42, -71
2015/07/18 22:03, -72
2015/07/18 22:23, -71
2015/07/18 22:42, -71
2015/07/18 23:02, -71
2015/07/18 23:23, -70
2015/07/18 23:43, -70
2015/07/19 00:03, -68
2015/07/19 00:22, -70
2015/07/19 00:42, -71
2015/07/19 01:03, -67
2015/07/19 01:23, -73
2015/07/19 01:42, -70
2015/07/19 02:03, -70
2015/07/19 02:23, -71
2015/07/19 02:43, -72
2015/07/19 03:02, -74
2015/07/19 03:22, -74
2015/07/19 03:42, -72
2015/07/19 04:03, -71
2015/07/19 04:22, -73
2015/07/19 04:42, -72
2015/07/19 05:02, -77
2015/07/19 05:22, -74
2015/07/19 05:42, -77
2015/07/19 06:03, -79
2015/07/19 06:23, -75
2015/07/19 06:42, -76
2015/07/19 07:03, -75
2015/07/19 07:22, -73
2015/07/19 07:42, -73
2015/07/19 08:03, -75
2015/07/19 08:23, -75
2015/07/19 08:43, -74
2015/07/19 09:03, -74
2015/07/19 09:23, -74
2015/07/19 09:42, -75
2015/07/19 10:03, -74
2015/07/19 10:23, -73
2015/07/19 10:43, -75
2015/07/19 11:02, -74
2015/07/19 11:23, -75
2015/07/19 11:43, -72
2015/07/19 12:02, -70
2015/07/19 12:23, -71
2015/07/19 12:43, -73
2015/07/19 13:02, -73
2015/07/19 13:22, -72
2015/07/19 13:42, -71
2015/07/19 14:03, -71
2015/07/19 14:23, -69
2015/07/19 14:43, -70
2015/07/19 15:03, -69
2015/07/19 15:23, -70
2015/07/19 15:43, -64
2015/07/19 16:03, -63
2015/07/19 16:22, -62
2015/07/19 16:42, -63
2015/07/19 17:02, -65
2015/07/19 17:22, -62
2015/07/19 17:42, -63
2015/07/19 18:02, -68
2015/07/19 18:23, -62
2015/07/19 18:42, -61
2015/07/19 19:03, -60
2015/07/19 19:22, -64
2015/07/19 19:42, -62
2015/07/19 20:03, -62
2015/07/19 20:23, -60
2015/07/19 20:43, -60
2015/07/19 21:03, -66
2015/07/19 21:23, -60
2015/07/19 21:43, -63
2015/07/19 22:03, -62
2015/07/19 22:22, -60
2015/07/19 22:42, -61
2015/07/19 23:02, -64
2015/07/19 23:22, -60
2015/07/19 23:42, -65
2015/07/20 00:02, -66
2015/07/20 00:22, -67
2015/07/20 00:42, -65
2015/07/20 01:03, -67
2015/07/20 01:23, -69
2015/07/20 01:43, 0
2015/07/20 02:03, 0
2015/07/20 02:23, 0
2015/07/20 02:43, 0
2015/07/20 03:03, 0
2015/07/20 03:23, 0
2015/07/20 03:43, -65
2015/07/20 04:03, -68
2015/07/20 04:23, -69
2015/07/20 04:42, -70
2015/07/20 05:03, -71
2015/07/20 05:22, -67
2015/07/20 05:42, -67
2015/07/20 06:03, -69
2015/07/20 06:22, -67
2015/07/20 06:43, -68
2015/07/20 07:03, -68
2015/07/20 07:22, -69
2015/07/20 07:43, -70
2015/07/20 08:03, -68
2015/07/20 08:23, -70
2015/07/20 08:43, -70
2015/07/20 09:03, -67
2015/07/20 09:22, -64
2015/07/20 09:43, -66
2015/07/20 10:03, -65
2015/07/20 10:22, -67
2015/07/20 10:42, -65
2015/07/20 11:03, -65
2015/07/20 11:23, -69
2015/07/20 11:42, -70
2015/07/20 12:02, -66
2015/07/20 12:23, -68
2015/07/20 12:43, -69
2015/07/20 13:03, -67
2015/07/20 13:22, -69
2015/07/20 13:43, -64
2015/07/20 14:03, -65
2015/07/20 14:23, -69
2015/07/20 14:43, -67
2015/07/20 15:03, -64
2015/07/20 15:23, -63
2015/07/20 15:43, -66
2015/07/20 16:03, -67
2015/07/20 16:22, -68
2015/07/20 16:43, -67
2015/07/20 17:02, -66
2015/07/20 17:22, -68
2015/07/20 17:43, -64
2015/07/20 18:03, -68
2015/07/20 18:23, -66
2015/07/20 18:43, -67
2015/07/20 19:03, -66
2015/07/20 19:23, -65
2015/07/20 19:42, -62
2015/07/20 20:03, -61
2015/07/20 20:23, -70
2015/07/20 20:43, -66
2015/07/20 21:03, -64
2015/07/20 21:23, -69
2015/07/20 21:43, -64
2015/07/20 22:03, -71
2015/07/20 22:23, -70
2015/07/20 22:43, -64
2015/07/20 23:03, -71
2015/07/20 23:22, -66
2015/07/20 23:43, -66
2015/07/21 00:03, -70
2015/07/21 00:22, -66
2015/07/21 00:43, -65
2015/07/21 01:03, -64